Stündliche Wetter Allmendingen

Heute, 26 Februar, Freitag

Zeit Temperatur Niederschläge Wind Luftdruck Luftfeuchtigkeit
00:00 +7°C° 0 mm 2 m/S 717 mmHg 68%
01:00 +7°C° 0 mm 2 m/S 717 mmHg 70%
02:00 +6°C° 0 mm 2 m/S 717 mmHg 72%
03:00 +6°C° 0 mm 2 m/S 717 mmHg 74%
04:00 +6°C° 0 mm 2 m/S 717 mmHg 76%
05:00 +5°C° 0 mm 2 m/S 717 mmHg 77%
06:00 +5°C° 0 mm 2 m/S 717 mmHg 78%
07:00 +5°C° 0 mm 2 m/S 717 mmHg 80%
08:00 +6°C° 0 mm 2 m/S 717 mmHg 76%
09:00 +8°C° 0 mm 2 m/S 717 mmHg 73%
10:00 +9°C° 0 mm 2 m/S 718 mmHg 70%
11:00 +10°C° 0 mm 2 m/S 718 mmHg 69%
12:00 +12°C° 0 mm 2 m/S 718 mmHg 67%
13:00 +13°C° 0 mm 2 m/S 718 mmHg 66%
14:00 +12°C° 0.1 mm 3 m/S 717 mmHg 71%
15:00 +11°C° 0.1 mm 3 m/S 717 mmHg 76%
16:00 +11°C° 0.1 mm 3 m/S 717 mmHg 81%
17:00 +9°C° 0.1 mm 3 m/S 717 mmHg 85%
18:00 +8°C° 0.1 mm 3 m/S 718 mmHg 89%
19:00 +7°C° 0.1 mm 3 m/S 718 mmHg 93%
20:00 +7°C° 0.2 mm 3 m/S 718 mmHg 92%
21:00 +5°C° 0.2 mm 3 m/S 718 mmHg 92%
22:00 +5°C° 0.2 mm 3 m/S 719 mmHg 92%
23:00 +4°C° 0 mm 3 m/S 719 mmHg 91%

Morgen, 27 Februar, Samstag

Zeit Temperatur Niederschläge Wind Luftdruck Luftfeuchtigkeit
00:00 +3°C° 0 mm 3 m/S 719 mmHg 90%
01:00 +3°C° 0 mm 3 m/S 720 mmHg 89%
02:00 +3°C° 0 mm 2 m/S 719 mmHg 91%
03:00 +2°C° 0 mm 2 m/S 719 mmHg 93%
04:00 +1°C° 0 mm 2 m/S 719 mmHg 95%
05:00 +1°C° 0 mm 2 m/S 719 mmHg 95%
06:00 -1°C° 0 mm 2 m/S 719 mmHg 95%
07:00 -1°C° 0 mm 2 m/S 719 mmHg 95%
08:00 0°C° 0 mm 3 m/S 720 mmHg 89%
09:00 +1°C° 0 mm 3 m/S 720 mmHg 83%
10:00 +1°C° 0 mm 4 m/S 720 mmHg 77%
11:00 +3°C° 0 mm 4 m/S 720 mmHg 73%
12:00 +4°C° 0 mm 4 m/S 720 mmHg 68%
13:00 +5°C° 0 mm 4 m/S 720 mmHg 64%
14:00 +5°C° 0 mm 4 m/S 720 mmHg 64%
15:00 +5°C° 0 mm 4 m/S 720 mmHg 63%
16:00 +5°C° 0 mm 5 m/S 719 mmHg 63%
17:00 +4°C° 0 mm 4 m/S 719 mmHg 69%
18:00 +1°C° 0 mm 4 m/S 719 mmHg 76%
19:00 +1°C° 0 mm 3 m/S 719 mmHg 82%
20:00 0°C° 0 mm 4 m/S 719 mmHg 85%
21:00 -1°C° 0 mm 4 m/S 719 mmHg 87%
22:00 -1°C° 0 mm 4 m/S 719 mmHg 90%
23:00 -1°C° 0 mm 4 m/S 719 mmHg 91%

übermorgen, 28 Februar, Sonntag

Zeit Temperatur Niederschläge Wind Luftdruck Luftfeuchtigkeit
00:00 -2°C° 0 mm 4 m/S 719 mmHg 92%
01:00 -2°C° 0 mm 4 m/S 718 mmHg 93%
02:00 -3°C° 0 mm 4 m/S 718 mmHg 93%
03:00 -2°C° 0 mm 3 m/S 718 mmHg 93%
04:00 -2°C° 0 mm 3 m/S 717 mmHg 94%
05:00 -2°C° 0 mm 3 m/S 717 mmHg 94%
06:00 -4°C° 0 mm 3 m/S 717 mmHg 95%
07:00 -3°C° 0 mm 2 m/S 717 mmHg 96%
08:00 -1°C° 0 mm 3 m/S 717 mmHg 90%
09:00 0°C° 0 mm 3 m/S 718 mmHg 83%
10:00 +2°C° 0 mm 3 m/S 718 mmHg 77%
11:00 +3°C° 0 mm 4 m/S 718 mmHg 71%
12:00 +4°C° 0 mm 4 m/S 718 mmHg 66%
13:00 +6°C° 0 mm 4 m/S 718 mmHg 60%
14:00 +6°C° 0 mm 4 m/S 717 mmHg 61%
15:00 +6°C° 0 mm 4 m/S 717 mmHg 62%
16:00 +6°C° 0 mm 4 m/S 716 mmHg 63%
17:00 +4°C° 0 mm 4 m/S 716 mmHg 69%
18:00 +1°C° 0 mm 4 m/S 717 mmHg 75%
19:00 +1°C° 0 mm 3 m/S 717 mmHg 80%
20:00 0°C° 0 mm 3 m/S 717 mmHg 82%
21:00 0°C° 0 mm 3 m/S 717 mmHg 83%
22:00 -1°C° 0 mm 3 m/S 717 mmHg 85%
23:00 -1°C° 0 mm 2 m/S 717 mmHg 86%

1 März, Montag

Zeit Temperatur Niederschläge Wind Luftdruck Luftfeuchtigkeit
00:00 -2°C° 0 mm 2 m/S 717 mmHg 87%
01:00 -2°C° 0 mm 2 m/S 716 mmHg 87%
02:00 -2°C° 0 mm 2 m/S 716 mmHg 88%
03:00 -2°C° 0 mm 2 m/S 716 mmHg 88%
04:00 -2°C° 0 mm 2 m/S 716 mmHg 89%
05:00 -2°C° 0 mm 2 m/S 716 mmHg 89%
06:00 -2°C° 0 mm 2 m/S 716 mmHg 90%
07:00 -2°C° 0 mm 2 m/S 716 mmHg 91%
08:00 -1°C° 0 mm 2 m/S 717 mmHg 83%
09:00 +2°C° 0 mm 2 m/S 717 mmHg 76%
10:00 +4°C° 0 mm 2 m/S 717 mmHg 68%
11:00 +6°C° 0 mm 2 m/S 717 mmHg 63%
12:00 +8°C° 0 mm 2 m/S 717 mmHg 59%
13:00 +9°C° 0 mm 2 m/S 718 mmHg 54%
14:00 +9°C° 0 mm 3 m/S 717 mmHg 57%
15:00 +9°C° 0 mm 3 m/S 717 mmHg 60%
16:00 +9°C° 0 mm 3 m/S 717 mmHg 64%
17:00 +7°C° 0 mm 3 m/S 717 mmHg 70%
18:00 +4°C° 0 mm 3 m/S 717 mmHg 76%
19:00 +2°C° 0 mm 2 m/S 717 mmHg 82%
20:00 +2°C° 0 mm 2 m/S 717 mmHg 82%
21:00 +1°C° 0 mm 2 m/S 717 mmHg 83%
22:00 +1°C° 0 mm 2 m/S 717 mmHg 84%
23:00 +2°C° 0 mm 1 m/S 717 mmHg 85%

2 März, Dienstag

Zeit Temperatur Niederschläge Wind Luftdruck Luftfeuchtigkeit
00:00 +1°C° 0 mm 1 m/S 717 mmHg 86%
01:00 +1°C° 0 mm 1 m/S 717 mmHg 87%
02:00 +1°C° 0 mm 1 m/S 717 mmHg 87%
03:00 +1°C° 0 mm 1 m/S 717 mmHg 87%
04:00 0°C° 0 mm 0 m/S 717 mmHg 88%
05:00 +1°C° 0 mm 1 m/S 717 mmHg 88%
06:00 +1°C° 0 mm 1 m/S 718 mmHg 88%
07:00 +1°C° 0 mm 1 m/S 718 mmHg 88%
08:00 +3°C° 0 mm 1 m/S 718 mmHg 80%
09:00 +5°C° 0 mm 1 m/S 718 mmHg 73%
10:00 +7°C° 0 mm 1 m/S 719 mmHg 65%
11:00 +9°C° 0 mm 1 m/S 719 mmHg 60%
12:00 +11°C° 0 mm 1 m/S 719 mmHg 56%
13:00 +12°C° 0 mm 1 m/S 719 mmHg 51%
14:00 +12°C° 0 mm 1 m/S 719 mmHg 53%
15:00 +13°C° 0 mm 1 m/S 719 mmHg 55%
16:00 +13°C° 0 mm 1 m/S 719 mmHg 56%
17:00 +11°C° 0 mm 1 m/S 719 mmHg 63%
18:00 +9°C° 0 mm 1 m/S 718 mmHg 71%
19:00 +7°C° 0 mm 1 m/S 718 mmHg 78%
20:00 +6°C° 0 mm 1 m/S 719 mmHg 78%
21:00 +6°C° 0 mm 1 m/S 719 mmHg 78%
22:00 +5°C° 0 mm 1 m/S 719 mmHg 78%
23:00 +5°C° 0 mm 1 m/S 719 mmHg 77%

3 März, Mittwoch

Zeit Temperatur Niederschläge Wind Luftdruck Luftfeuchtigkeit
00:00 +4°C° 0 mm 1 m/S 719 mmHg 76%
01:00 +4°C° 0 mm 1 m/S 719 mmHg 75%
02:00 +4°C° 0 mm 1 m/S 719 mmHg 75%
03:00 +3°C° 0 mm 1 m/S 719 mmHg 74%
04:00 +3°C° 0 mm 1 m/S 719 mmHg 73%
05:00 +3°C° 0 mm 1 m/S 719 mmHg 72%
06:00 +3°C° 0 mm 1 m/S 719 mmHg 71%
07:00 +3°C° 0 mm 1 m/S 719 mmHg 70%
08:00 +5°C° 0 mm 1 m/S 719 mmHg 67%
09:00 +7°C° 0 mm 1 m/S 719 mmHg 64%
10:00 +9°C° 0 mm 1 m/S 719 mmHg 60%
11:00 +10°C° 0 mm 1 m/S 719 mmHg 56%
12:00 +11°C° 0 mm 1 m/S 719 mmHg 52%
13:00 +13°C° 0 mm 1 m/S 719 mmHg 47%
14:00 +13°C° 0 mm 1 m/S 719 mmHg 48%
15:00 +13°C° 0 mm 1 m/S 718 mmHg 48%
16:00 +13°C° 0 mm 1 m/S 718 mmHg 48%
17:00 +11°C° 0 mm 1 m/S 718 mmHg 55%
18:00 +9°C° 0 mm 1 m/S 718 mmHg 62%
19:00 +7°C° 0 mm 1 m/S 717 mmHg 69%
20:00 +7°C° 0 mm 1 m/S 718 mmHg 71%
21:00 +6°C° 0 mm 1 m/S 718 mmHg 72%
22:00 +6°C° 0 mm 1 m/S 718 mmHg 74%
23:00 +6°C° 0 mm 1 m/S 718 mmHg 76%
Mehr zeigen

Wir brauchen deine Erlaubnis

Meteoprog und unser Service Anbieter werden persönliche Daten aufbewahren, so wie Cookies, Geräte Bezeichnung oder ähnliche Technologien von deinem Gerät und Prozess, so wie Persönliche Daten Inhalte und Werbungen, genauso wie social Media und den Verkehr zu analysieren.

  • Aufbewahrung und/oder Zugang zu deiner Geräte Informationen.

    Cookies, Geräte Bezeichnung oder andere Informationen, können aufbewahrt oder Zugang zu deinem Gerät erhalten, für den Grund, der oben angegeben wird.

  • Personalisierte Werbung und Inhalte, Messungen, Einblick in das Publikum und Produkt Entwicklung.

    Werbungen und Inhalte können personalisiert werden, basierend auf ein Profil. Mehr Daten können besser personalisierte Werbungen und Inhalte hinzufügen. Werbung und Inhalte können gezeigt und gemessen werden. Einblicke über das Publikum, welche die Werbung gesehen haben und den Inhalt, können abgeleitet werden. So wie Daten können genutzt werden, um es zu verbessern oder die Benutzer Erfahrung zu verbessern das System und die Software.

Wenn du “Ich stimme zu” klickst, erlaubst du uns, die Cookies zu benutzen die Geräte Bezeichnung, den Web oder ähnliche Technologien zu benutzen. Deine Settings, können in deinem Gerät bei deinem Browser geändert werden.

Für den bestimmten Zweck, berechtigten Interessen beruhen darauf, mehr als auf den Inhalt. Du kannst mehr darüber in unseren Privaten und Cookie Politik lesen.